Location: Luton
(51.8787°N, 0.4200°W)
Time: 12:51:43
(UTC+01:00)

ISS - Visible Passes

Search period start: 15 July 2020 00:00
Search period end: 25 July 2020 00:00
Orbit: 417 x 419 km, 51.6° (Epoch: 16 July)

Date Brightness Start Highest point End Pass type
(mag) Time Alt. Az. Time Alt. Az. Time Alt. Az.
15 Jul -3.8 00:01:55 10° WSW 00:05:14 59° SSE 00:08:34 10° E visible
15 Jul -3.9 01:38:36 10° W 01:41:59 88° S 01:45:21 10° E visible
15 Jul -3.6 03:15:24 10° W 03:18:39 48° SSW 03:21:55 10° SE visible
15 Jul -3.5 23:14:07 10° SW 23:17:20 46° SSE 23:20:36 10° E visible
16 Jul -3.9 00:50:38 10° W 00:54:01 88° S 00:57:24 10° E visible
16 Jul -3.8 02:27:26 10° W 02:30:45 61° SSW 02:34:04 10° ESE visible
16 Jul -2.3 04:04:37 10° W 04:07:06 19° SW 04:09:34 10° SSE visible
16 Jul -3.1 22:26:24 10° SW 22:29:29 34° SSE 22:32:34 10° E visible
17 Jul -3.9 00:02:41 10° W 00:06:03 82° S 00:09:25 10° E visible
17 Jul -3.9 01:39:27 10° W 01:42:49 74° SSW 01:46:10 10° ESE visible
17 Jul -2.8 03:16:25 10° W 03:19:18 27° SSW 03:22:11 10° SSE visible
17 Jul -3.9 23:14:44 10° WSW 23:18:05 72° SSE 23:21:27 10° E visible
18 Jul -3.9 00:51:28 10° W 00:54:51 84° S 00:58:13 10° E visible
18 Jul -3.3 02:28:19 10° W 02:31:27 36° SSW 02:32:41 26° SSE visible
18 Jul -3.7 22:26:49 10° WSW 22:30:08 59° SSE 22:33:28 10° E visible
19 Jul -3.9 00:03:29 10° W 00:06:52 88° SSW 00:10:14 10° E visible
19 Jul -3.6 01:40:17 10° W 01:43:27 48° SSW 01:43:27 48° SSW visible
19 Jul -3.8 23:15:29 10° W 23:18:52 88° S 23:22:14 10° E visible
20 Jul -3.8 00:52:16 10° W 00:55:36 62° SSW 00:56:06 53° SSE visible
20 Jul -3.8 22:27:29 10° WSW 22:30:51 82° S 22:34:13 10° E visible
21 Jul -3.9 00:04:15 10° W 00:07:37 75° S 00:09:08 30° ESE visible
21 Jul -1.6 01:41:11 10° W 01:42:01 15° W 01:42:01 15° W visible
21 Jul -3.9 23:16:14 10° W 23:19:37 84° S 23:22:20 15° E visible
22 Jul -2.6 00:53:04 10° W 00:55:13 29° WSW 00:55:13 29° WSW visible
22 Jul -3.8 22:28:12 10° W 22:31:35 88° SSE 22:34:57 10° E visible
23 Jul -3.6 00:04:59 10° W 00:08:15 49° SSW 00:08:30 48° S visible
23 Jul -3.8 23:16:56 10° W 23:20:16 63° SSW 23:21:51 28° ESE visible
24 Jul -1.4 00:54:04 10° W 00:54:44 13° WSW 00:54:44 13° WSW visible
24 Jul -3.8 22:28:53 10° W 22:32:15 76° SSW 22:35:14 13° ESE visible
